Home   Weather   Oxnard   Past weeks

Flag for USA Past Weather in Oxnard, California, USA — Yesterday and Last 2 Weeks

Now
64 °F

Sunny.


Feels Like: 64 °F
Forecast: 51 / 62 °F
Wind: 18 mph from West

Location: Oxnard Airport

Current Time: Feb 22, 2017 at 2:38:33 pm

Latest Report: Feb 22, 2017 at 1:51 pm


Visibility: 7 mi

Pressure: 30.04 "Hg

Humidity: 61%

Dew Point: 50 °F

Location of OxnardLocation

Past Weather in Oxnard — Graph

°F

Oxnard Temperature Yesterday

Maximum temperature yesterday: 62 °F (at 11:00 am)
Minimum temperature yesterday: 57 °F (at 10:14 pm)
Average temperature yesterday: 60 °F

High & Low Weather Summary for the Past Weeks

 TemperatureHumidityPressure
High72 °F (Feb 15, 10:51 am)97% (Feb 7, 10:28 pm)30.34 "Hg (Feb 7, 10:28 pm)
Low48 °F (Feb 13, 5:51 am)41% (Feb 15, 10:51 am)29.39 "Hg (Feb 17, 4:51 pm)
Average58 °F86%30.02 "Hg
* Reported Feb 7 12:07 pm — Feb 22 12:51 pm, Oxnard, Weather by CustomWeather, © 2017

Note: Actual official high and low records may vary slightly from our data, if they occured in-between our weather recording intervals... More about our weather records

Advertising

Oxnard Weather History for the Previous 24 Hours

Scroll right to see more
 ConditionsComfort  
Time TempWeatherWind HumidityBarometerVisibility
12:51 pm
Wed, Feb 22
63 °FSunny.13 mph56%30.07 "Hg8 mi
11:51 am62 °FSunny.14 mph60%30.09 "Hg8 mi
10:51 am61 °FSunny.5 mph62%30.12 "Hg8 mi
9:51 am59 °FSunny.6 mph69%30.13 "Hg8 mi
8:51 am58 °FSunny.No wind81%30.14 "Hg7 mi
7:51 am53 °FFog.3 mph89%30.14 "Hg5 mi
6:51 am51 °FFog.No wind89%30.14 "Hg4 mi
6:12 am52 °FFog.No wind93%30.14 "Hg4 mi
5:57 am51 °FFog.No wind96%30.14 "Hg0 mi
5:23 am51 °FFog.6 mph92%30.14 "Hg0 mi
5:03 am51 °FFog.6 mph92%30.14 "Hg0 mi
4:31 am51 °FFog.6 mph92%30.14 "Hg1 mi
3:51 am53 °FFog.No wind89%30.15 "Hg5 mi
2:51 am56 °FFog.3 mph90%30.15 "Hg5 mi
1:51 am57 °FFog.9 mph87%30.18 "Hg5 mi
1:24 am57 °FFog.9 mph90%30.19 "Hg5 mi
12:51 am57 °FFog.5 mph90%30.20 "Hg6 mi
12:13 am57 °FLow clouds.10 mph90%30.22 "Hg7 mi
11:51 pm
Tue, Feb 21
57 °FFog.9 mph90%30.22 "Hg5 mi
11:08 pm58 °FFog.8 mph93%30.23 "Hg6 mi
10:14 pm57 °FFog.10 mph93%30.23 "Hg5 mi
9:51 pm58 °FFog.7 mph93%30.24 "Hg4 mi
9:28 pm58 °FFog.10 mph93%30.24 "Hg4 mi
8:43 pm59 °FFog.6 mph93%30.24 "Hg1 mi
7:51 pm59 °FFog.5 mph93%30.23 "Hg1 mi
7:38 pm60 °FFog.5 mph90%30.23 "Hg2 mi
6:59 pm60 °FFog.3 mph93%30.23 "Hg5 mi
6:10 pm61 °FFog.3 mph90%30.22 "Hg6 mi
5:51 pm61 °FFog.3 mph90%30.22 "Hg6 mi
5:08 pm61 °FFog.No wind90%30.23 "Hg4 mi
3:51 pm61 °FFog.5 mph90%30.24 "Hg3 mi
3:28 pm61 °FFog.5 mph90%30.24 "Hg3 mi
2:51 pm61 °FFog.No wind90%30.25 "Hg1 mi
2:27 pm61 °FLight rain. Fog.No wind90%30.26 "Hg1 mi
Weather by CustomWeather, © 2017

See weather overviewHow to use our weather pages